User: anonymous   Login
Location: Vancouver
(49.2500°N, 123.1330°W)
Time: 21:50:17
(UTC-07:00)
Language:

deb Explorer IX - Orbit

View from above orbital plane
View from above orbital plane
View from above satellite
View from above satellite

Ground track
Ground track

The orbit data is extracted from the following two-line orbital elements,

1 00085U 61004C   14303.36858363  .00035399  00000-0  91308-2 0   620
2 00085 038.7721 009.5688 0444783 198.5807 159.8219 14.03633302639252
Epoch (UTC): 30 October 2014 08:50:45
Eccentricity: 0.0444783
inclination: 38.7721°
perigee height: 558 km
apogee height: 1204 km
right ascension of ascending node: 9.5688°
argument of perigee: 198.5807°
revolutions per day: 14.03633302
mean anomaly at epoch: 159.8219°
orbit number at epoch: 63925

The dashed part of the orbit path shows where the satellite is in the earth's shadow,  

DLR